TimeCDT,TemperatureF,Dew PointF,Humidity,Sea Level PressureIn,VisibilityMPH,Wind Direction,Wind SpeedMPH,Gust SpeedMPH,PrecipitationIn,Events,Conditions,WindDirDegrees,DateUTC
12:13 AM,75.4,65.8,72,29.88,10.0,South,6.9,-,N/A,,Scattered Clouds,190,2013-07-07 05:13:00
12:33 AM,76.1,65.3,69,29.88,10.0,South,9.2,-,N/A,,Scattered Clouds,190,2013-07-07 05:33:00
12:54 AM,75.6,64.6,69,29.87,10.0,South,10.4,-,N/A,,Scattered Clouds,190,2013-07-07 05:54:00
1:13 AM,74.8,64.4,70,29.88,10.0,South,11.5,17.3,N/A,,Clear,190,2013-07-07 06:13:00
1:33 AM,74.3,64.4,71,29.87,10.0,South,9.2,-,N/A,,Clear,190,2013-07-07 06:33:00
1:53 AM,73.4,64.4,73,29.87,10.0,South,9.2,-,N/A,,Clear,190,2013-07-07 06:53:00
2:14 AM,72.9,64.4,75,29.87,10.0,South,8.1,-,N/A,,Clear,190,2013-07-07 07:14:00
2:34 AM,72.5,64.4,76,29.86,10.0,South,9.2,-,N/A,,Clear,180,2013-07-07 07:34:00
2:54 AM,72.1,64.4,77,29.87,10.0,South,8.1,-,N/A,,Clear,190,2013-07-07 07:54:00
3:13 AM,72.1,64.0,76,29.87,10.0,South,6.9,-,N/A,,Clear,190,2013-07-07 08:13:00
3:33 AM,71.6,64.0,77,29.87,10.0,South,8.1,-,N/A,,Clear,180,2013-07-07 08:33:00
3:53 AM,70.9,63.9,78,29.87,10.0,South,8.1,-,N/A,,Clear,180,2013-07-07 08:53:00
4:13 AM,70.7,63.7,78,29.87,10.0,South,8.1,-,N/A,,Clear,190,2013-07-07 09:13:00
4:33 AM,70.2,63.7,80,29.87,10.0,South,4.6,-,N/A,,Clear,170,2013-07-07 09:33:00
4:53 AM,69.3,63.5,82,29.87,10.0,South,5.8,-,N/A,,Clear,170,2013-07-07 09:53:00
5:13 AM,69.3,63.3,81,29.87,10.0,South,8.1,-,N/A,,Clear,180,2013-07-07 10:13:00
5:33 AM,68.9,63.0,81,29.87,10.0,South,6.9,-,N/A,,Clear,180,2013-07-07 10:33:00
5:52 AM,68.4,63.0,83,29.87,10.0,South,4.6,-,N/A,,Clear,180,2013-07-07 10:52:00
6:13 AM,68.2,62.8,83,29.87,10.0,South,5.8,-,N/A,,Clear,180,2013-07-07 11:13:00
6:34 AM,68.2,62.8,83,29.88,7.0,South,4.6,-,N/A,,Clear,170,2013-07-07 11:34:00
6:52 AM,68.9,63.0,81,29.88,7.0,South,5.8,-,N/A,,Clear,190,2013-07-07 11:52:00
7:13 AM,69.8,63.0,79,29.88,7.0,South,6.9,-,N/A,,Clear,190,2013-07-07 12:13:00
7:33 AM,70.7,63.1,77,29.89,7.0,SSW,6.9,-,N/A,,Clear,210,2013-07-07 12:33:00
7:53 AM,71.8,63.1,74,29.89,10.0,SSW,6.9,-,N/A,,Clear,210,2013-07-07 12:53:00
8:13 AM,73.2,63.1,71,29.89,7.0,SSW,9.2,-,N/A,,Clear,210,2013-07-07 13:13:00
8:34 AM,73.9,63.0,68,29.89,10.0,SSW,8.1,-,N/A,,Clear,210,2013-07-07 13:34:00
8:53 AM,74.7,63.1,67,29.89,10.0,SSW,9.2,-,N/A,,Scattered Clouds,210,2013-07-07 13:53:00
9:14 AM,75.7,63.3,65,29.90,10.0,SSW,6.9,-,N/A,,Mostly Cloudy,210,2013-07-07 14:14:00
9:33 AM,76.3,63.5,64,29.89,10.0,SSW,4.6,-,N/A,,Scattered Clouds,210,2013-07-07 14:33:00
9:53 AM,77.2,63.7,63,29.89,10.0,Calm,Calm,-,N/A,,Clear,0,2013-07-07 14:53:00
10:13 AM,77.9,63.5,61,29.89,10.0,WSW,3.5,-,N/A,,Clear,240,2013-07-07 15:13:00
10:33 AM,78.8,63.7,60,29.90,10.0,West,3.5,-,N/A,,Clear,270,2013-07-07 15:33:00
10:53 AM,79.3,64.2,60,29.90,10.0,Calm,Calm,-,N/A,,Clear,0,2013-07-07 15:53:00
11:14 AM,80.8,64.9,58,29.91,10.0,NNW,3.5,-,N/A,,Clear,330,2013-07-07 16:14:00
11:33 AM,81.5,65.5,58,29.91,10.0,NNE,3.5,-,N/A,,Clear,20,2013-07-07 16:33:00
11:53 AM,81.9,65.3,57,29.91,10.0,West,3.5,-,N/A,,Clear,270,2013-07-07 16:53:00
12:12 PM,82.9,65.5,55,29.91,10.0,Calm,Calm,-,N/A,,Clear,0,2013-07-07 17:12:00
12:33 PM,83.1,66.0,56,29.91,10.0,Calm,Calm,-,N/A,,Clear,0,2013-07-07 17:33:00
12:54 PM,84.6,66.0,54,29.91,10.0,NNE,3.5,-,N/A,,Clear,20,2013-07-07 17:54:00
1:13 PM,85.1,65.8,52,29.91,10.0,ENE,3.5,-,N/A,,Clear,70,2013-07-07 18:13:00
1:33 PM,84.7,65.3,52,29.90,10.0,Calm,Calm,-,N/A,,Clear,0,2013-07-07 18:33:00
1:53 PM,85.6,65.7,51,29.90,10.0,Calm,Calm,-,N/A,,Clear,0,2013-07-07 18:53:00
2:14 PM,86.7,66.4,51,29.90,10.0,Calm,Calm,-,N/A,,Clear,0,2013-07-07 19:14:00
2:34 PM,86.7,65.3,49,29.91,10.0,Calm,Calm,-,N/A,,Clear,0,2013-07-07 19:34:00
2:54 PM,88.2,66.9,49,29.91,10.0,North,4.6,-,N/A,,Clear,360,2013-07-07 19:54:00
3:13 PM,87.6,65.8,48,29.91,10.0,NNE,4.6,-,N/A,,Clear,30,2013-07-07 20:13:00
3:32 PM,87.8,66.4,49,29.91,10.0,NNE,3.5,-,N/A,,Clear,30,2013-07-07 20:32:00
3:54 PM,86.9,65.5,49,29.90,10.0,NE,4.6,-,N/A,,Clear,40,2013-07-07 20:54:00
4:14 PM,86.2,64.9,49,29.90,10.0,NNE,3.5,-,N/A,,Clear,20,2013-07-07 21:14:00
4:33 PM,86.0,68.4,55,29.90,10.0,Calm,Calm,-,N/A,,Clear,0,2013-07-07 21:33:00
4:53 PM,86.2,67.6,54,29.90,10.0,North,4.6,-,N/A,,Clear,10,2013-07-07 21:53:00
5:13 PM,85.6,67.1,54,29.90,7.0,NNE,3.5,-,N/A,,Clear,20,2013-07-07 22:13:00
5:33 PM,85.6,68.4,56,29.89,10.0,North,4.6,-,N/A,,Clear,10,2013-07-07 22:33:00
5:53 PM,84.9,69.4,60,29.90,10.0,North,4.6,-,N/A,,Clear,10,2013-07-07 22:53:00
6:14 PM,84.6,69.6,61,29.90,10.0,North,5.8,-,N/A,,Clear,10,2013-07-07 23:14:00
6:34 PM,84.0,69.1,61,29.91,7.0,NNW,8.1,-,N/A,,Clear,340,2013-07-07 23:34:00
6:52 PM,83.5,69.3,62,29.91,10.0,North,6.9,-,N/A,,Clear,360,2013-07-07 23:52:00
7:13 PM,82.9,69.6,64,29.91,7.0,North,6.9,-,N/A,,Clear,350,2013-07-08 00:13:00
7:34 PM,82.6,70.2,66,29.92,7.0,North,5.8,-,N/A,,Clear,350,2013-07-08 00:34:00
7:53 PM,81.9,71.1,70,29.92,7.0,NNW,5.8,-,N/A,,Clear,330,2013-07-08 00:53:00
8:13 PM,81.5,70.5,69,29.93,7.0,NNW,6.9,-,N/A,,Clear,330,2013-07-08 01:13:00
8:33 PM,81.5,68.0,63,29.93,10.0,NNW,6.9,-,N/A,,Clear,330,2013-07-08 01:33:00
8:53 PM,80.1,65.3,61,29.91,10.0,NNW,11.5,-,N/A,,Clear,340,2013-07-08 01:53:00
9:14 PM,78.8,67.1,67,29.91,10.0,North,9.2,-,N/A,,Clear,350,2013-07-08 02:14:00
9:33 PM,77.9,67.8,71,29.93,10.0,North,10.4,-,N/A,,Clear,350,2013-07-08 02:33:00
9:53 PM,77.0,67.5,72,29.94,10.0,North,9.2,-,N/A,Thunderstorm,Clear,350,2013-07-08 02:53:00
10:12 PM,76.6,67.1,72,29.96,10.0,NNE,6.9,-,N/A,,Clear,20,2013-07-08 03:12:00
10:34 PM,76.1,66.2,71,29.96,10.0,North,8.1,-,N/A,,Clear,360,2013-07-08 03:34:00
10:53 PM,75.2,65.3,71,29.97,10.0,North,12.7,-,N/A,,Clear,350,2013-07-08 03:53:00
11:13 PM,74.8,64.9,71,29.98,10.0,North,10.4,-,N/A,,Clear,350,2013-07-08 04:13:00
11:33 PM,73.8,64.9,74,29.98,10.0,NNW,6.9,-,N/A,,Scattered Clouds,330,2013-07-08 04:33:00
11:53 PM,72.7,64.4,75,29.98,10.0,NNW,6.9,-,N/A,,Scattered Clouds,340,2013-07-08 04:53:00